Alpena, MI

9:38 AM EDT on March 28, 2017 (GMT -0400)
Alpena County Regional

Weather History for KAPN - April, 2014

Change the Weather History Date:

Sunday, April 20, 2014

  Actual Average Record
Temperature  
Mean Temperature 43 °F 44 °F  
Max Temperature 58 °F 55 °F 86 °F (1987)
Min Temperature 27 °F 33 °F 18 °F (1928)
Degree Days  
Heating Degree Days 22 21  
Month to date heating degree days 557 508  
Since 1 July heating degree days 8444 7364  
Cooling Degree Days 0 0  
Month to date cooling degree days 0 0  
Year to date cooling degree days 0 0  
Moisture  
Dew Point 32 °F    
Average Humidity 60    
Maximum Humidity 85    
Minimum Humidity 35    
Precipitation  
Precipitation T in 0.08 in 0.90 in (2009)
Month to date precipitation 3.22 1.62  
Year to date precipitation 6.92 6.46  
Snow  
Snow 0.00 in 0.20 in 2.90 in (2011)
Month to date snowfall 1.2 5.0  
Since 1 July snowfall 64.0 83.3  
Snow Depth 0.00 in    
Sea Level Pressure  
Sea Level Pressure 30.22 in    
Wind  
Wind Speed 6 mph (SE)    
Max Wind Speed 18 mph    
Max Gust Speed 22 mph    
Visibility 10 miles    
Events Rain    
T = Trace of Precipitation, MM = Missing Value Source: NWS Daily Summary

Daily Weather History Graph

Daily Weather History Graph

Search for Another Location

Airport or City:

Trip Planner

Search our weather history database for the weather conditions in past years. The results will help you decide how hot, cold, wet, or windy it might be!

Date:

Astronomy

Apr. 20, 2014 Rise Set
Actual Time 6:40 AM EDT 8:26 PM EDT
Civil Twilight 6:09 AM EDT 8:57 PM EDT
Nautical Twilight 5:31 AM EDT 9:35 PM EDT
Astronomical Twilight 4:50 AM EDT 10:17 PM EDT
Moon 1:10 AM EDT (4/20) 10:54 AM EDT (4/20)
Length of Visible Light 14h 47m
Length of Day
13h 45m
Waning Gibbous, 69% of the Moon is Illuminated
Apr 20
Waning Gibbous
Apr 22
Last Quarter
Apr 29
New
May 6
First Quarter
May 14
Full

Hourly Weather History & Observations

Time (EDT) Temp. Windchill Dew Point Humidity Pressure Visibility Wind Dir Wind Speed Gust Speed Precip Events Conditions
12:54 AM 32.0 °F 28.7 °F 24.1 °F 73% 30.36 in 10.0 mi SSE 3.5 mph - N/A   Clear
1:54 AM 28.0 °F 24.2 °F 24.1 °F 85% 30.36 in 10.0 mi SE 3.5 mph - N/A   Clear
2:54 AM 30.0 °F 24.1 °F 25.0 °F 82% 30.34 in 10.0 mi SSE 5.8 mph - N/A   Scattered Clouds
3:54 AM 34.0 °F 28.8 °F 27.0 °F 75% 30.34 in 10.0 mi SSE 5.8 mph - N/A   Overcast
4:54 AM 35.1 °F 32.2 °F 28.0 °F 76% 30.33 in 10.0 mi SE 3.5 mph - N/A   Overcast
5:54 AM 36.0 °F - 28.9 °F 76% 30.32 in 10.0 mi Calm Calm - N/A   Overcast
6:54 AM 36.0 °F 32.1 °F 30.0 °F 79% 30.32 in 10.0 mi SSE 4.6 mph - N/A   Overcast
7:54 AM 37.9 °F 32.7 °F 32.0 °F 79% 30.32 in 10.0 mi SSE 6.9 mph - N/A   Mostly Cloudy
8:54 AM 44.1 °F 38.1 °F 32.0 °F 63% 30.31 in 10.0 mi SSE 11.5 mph - N/A   Mostly Cloudy
9:54 AM 50.0 °F - 28.9 °F 44% 30.29 in 10.0 mi South 12.7 mph 19.6 mph N/A   Partly Cloudy
10:54 AM 54.0 °F - 28.0 °F 37% 30.26 in 10.0 mi South 12.7 mph - N/A   Partly Cloudy
11:54 AM 55.9 °F - 28.9 °F 36% 30.25 in 10.0 mi South 11.5 mph - N/A   Mostly Cloudy
12:54 PM 55.9 °F - 28.0 °F 34% 30.22 in 10.0 mi South 8.1 mph - N/A   Overcast
1:54 PM 54.0 °F - 35.1 °F 49% 30.20 in 10.0 mi East 8.1 mph - N/A   Overcast
2:54 PM 51.1 °F - 37.9 °F 61% 30.18 in 10.0 mi ESE 4.6 mph - 0.00 in   Overcast
3:54 PM 48.9 °F - 37.0 °F 64% 30.16 in 10.0 mi ENE 4.6 mph - N/A   Overcast
4:54 PM 46.9 °F - 37.0 °F 68% 30.16 in 10.0 mi NE 5.8 mph - 0.00 in Rain Light Rain
5:54 PM 45.0 °F 41.2 °F 36.0 °F 71% 30.13 in 10.0 mi ESE 6.9 mph - 0.00 in Rain Light Rain
6:54 PM 45.0 °F 43.5 °F 36.0 °F 71% 30.11 in 10.0 mi SE 3.5 mph - 0.00 in   Mostly Cloudy
7:54 PM 45.0 °F 43.5 °F 37.0 °F 74% 30.08 in 10.0 mi SSE 3.5 mph - N/A   Mostly Cloudy
8:54 PM 46.9 °F - 37.0 °F 68% 30.06 in 10.0 mi SSE 5.8 mph - N/A   Overcast
9:54 PM 46.0 °F - 37.9 °F 73% 30.07 in 10.0 mi Calm Calm - N/A   Scattered Clouds
10:54 PM 46.9 °F - 37.9 °F 71% 30.06 in 10.0 mi Calm Calm - N/A   Overcast
11:54 PM 48.0 °F - 39.0 °F 71% 30.06 in 10.0 mi WNW 3.5 mph - N/A   Overcast